Weather History for Dallas Redbird, TX

Change the Weather History Date:

Monday, December 3, 2012

  Actual Average Record
Temperature  
Mean Temperature 72 °F -  
Max Temperature 79 °F 58 °F 88 °F (2005)
Min Temperature 64 °F 41 °F 28 °F (2006)
Cooling Degree Days 6    
Growing Degree Days 22 (Base 50)    
Moisture  
Dew Point 58 °F    
Average Humidity 66    
Maximum Humidity 88    
Minimum Humidity 47    
Precipitation  
Precipitation 0.00 in - - ()
Sea Level Pressure  
Sea Level Pressure 29.96 in    
Wind  
Wind Speed 11 mph (South)    
Max Wind Speed 14 mph    
Max Gust Speed 25 mph    
Visibility 10 miles    
Events      
Averages and records for this station are not official NWS values.
T = Trace of Precipitation, MM = Missing Value Source: NWS Daily Summary

Daily Weather History Graph

Daily Weather History Graph

Search for Another Location

Airport:

Trip Planner

Search our weather history database for the weather conditions in past years. The results will help you decide how hot, cold, wet, or windy it might be!

Date:

Astronomy

Dec. 03, 2012 Rise Set
Actual Time 7:13 AM CST 5:21 PM CST
Civil Twilight 6:46 AM CST 5:48 PM CST
Nautical Twilight 6:16 AM CST 6:18 PM CST
Astronomical Twilight 5:46 AM CST 6:48 PM CST
Moon 10:00 PM CST (12/3) 10:45 AM CST (12/3)
Length of Visible Light 11h 01m
Length of Day
10h 07m
Waning Gibbous, 78% of the Moon is Illuminated
Dec 3
Waning Gibbous
Dec 6
Last Quarter
Dec 13
New
Dec 19
First Quarter
Dec 28
Full

Hourly Weather History & Observations

Time (CST) Temp. Dew Point Humidity Pressure Visibility Wind Dir Wind Speed Gust Speed Precip Events Conditions
12:53 AM 66.9 °F 57.9 °F 73% 29.99 in 10.0 mi South 9.2 mph 20.7 mph N/A   Clear
1:53 AM 66.0 °F 59.0 °F 78% 29.98 in 10.0 mi South 12.7 mph 20.7 mph N/A   Clear
2:53 AM 66.0 °F 60.1 °F 81% 29.98 in 10.0 mi South 10.4 mph 21.9 mph N/A   Clear
3:40 AM 64.4 °F 60.8 °F 88% 30.00 in 10.0 mi South 12.7 mph 20.7 mph N/A   Mostly Cloudy
3:53 AM 64.9 °F 60.1 °F 84% 29.98 in 10.0 mi South 12.7 mph 23.0 mph N/A   Mostly Cloudy
4:53 AM 66.0 °F 60.1 °F 81% 29.98 in 10.0 mi South 12.7 mph 21.9 mph N/A   Mostly Cloudy
5:39 AM 66.2 °F 60.8 °F 83% 29.99 in 10.0 mi South 12.7 mph 23.0 mph N/A   Overcast
5:53 AM 66.0 °F 60.1 °F 81% 29.99 in 10.0 mi South 9.2 mph 21.9 mph N/A   Overcast
6:53 AM 66.0 °F 60.1 °F 81% 29.99 in 10.0 mi South 8.1 mph 17.3 mph N/A   Mostly Cloudy
7:53 AM 66.9 °F 60.1 °F 79% 30.00 in 10.0 mi South 11.5 mph 17.3 mph N/A   Overcast
10:25 AM 71.6 °F 59.0 °F 64% 30.03 in 10.0 mi South 11.5 mph 21.9 mph N/A   Scattered Clouds
10:53 AM 73.0 °F 59.0 °F 61% 30.01 in 10.0 mi SSW 10.4 mph 23.0 mph N/A   Partly Cloudy
11:53 AM 75.9 °F 57.9 °F 54% 29.98 in 10.0 mi South 13.8 mph 25.3 mph N/A   Clear
12:53 PM 78.1 °F 57.0 °F 48% 29.94 in 10.0 mi South 11.5 mph 23.0 mph N/A   Clear
1:53 PM 79.0 °F 57.9 °F 48% 29.92 in 10.0 mi South 12.7 mph 24.2 mph N/A   Clear
2:53 PM 79.0 °F 57.0 °F 47% 29.89 in 10.0 mi SSW 10.4 mph 24.2 mph N/A   Clear
3:53 PM 79.0 °F 57.9 °F 48% 29.88 in 10.0 mi South 13.8 mph 23.0 mph N/A   Clear
4:53 PM 78.1 °F 57.0 °F 48% 29.89 in 10.0 mi South 9.2 mph - N/A   Clear
5:53 PM 75.9 °F 57.0 °F 52% 29.89 in 10.0 mi South 11.5 mph 18.4 mph N/A   Clear
6:53 PM 73.9 °F 57.0 °F 55% 29.91 in 10.0 mi South 6.9 mph - N/A   Clear
7:53 PM 73.0 °F 57.0 °F 57% 29.92 in 10.0 mi South 8.1 mph - N/A   Clear
8:53 PM 71.1 °F 57.0 °F 61% 29.94 in 10.0 mi South 6.9 mph - N/A   Clear
9:53 PM 69.1 °F 57.0 °F 65% 29.95 in 10.0 mi South 4.6 mph - N/A   Clear
10:53 PM 66.9 °F 57.0 °F 70% 29.96 in 10.0 mi South 4.6 mph - N/A   Clear